Location: ???? ?????
(30.0052°N, 31.2891°E)
Time: 19:34:08
(UTC+00:00)

Iridium 16 - Pass Details

Date: 30 January 2023
Orbit: 765 x 769 km, 86.4° (Epoch: 01 April)

Event Time Altitude Azimuth Distance (km) Brightness Sun altitude
Rises 15:50:01 0° 342° (NNW) 3,243 8.8 -4.9°
Reaches altitude 10° 15:52:41 10° 330° (NNW) 2,313 8.2 -5.5°
Maximum altitude 15:56:53 26° 276° (W) 1,491 8.0 -6.4°
Drops below altitude 10° 16:01:05 10° 221° (SW) 2,304 9.0 -7.2°
Sets 16:03:45 0° 209° (SSW) 3,227 9.5 -7.8°
